Lapse_Rate
5.2 4.8 4.5 4.2 4.2 4.0 3.9 3.9 3.8 3.7 4.1 5.2 5.5 5.6 5.4 5.6 6.0 6.1 6.2 6.1 6.0 5.9 6.0 6.0 6.4 6.3 6.2 6.3 6.3 6.2 5.9 5.8 5.9 6.9 7.2 7.2 7.6 7.8 7.6 7.4 7.4 7.5 7.5 7.4 7.4
4.9 4.7 4.3 4.2 4.2 4.0 4.0 4.1 3.9 4.0 4.3 5.1 5.5 5.5 5.3 5.7 6.2 6.0 6.2 6.1 6.2 6.3 6.2 6.2 6.2 6.2 6.1 6.2 6.2 6.1 6.0 5.9 6.0 6.6 7.0 7.2 7.5 7.6 7.8 7.6 7.4 7.5 7.6 7.6 7.5
4.9 4.5 4.2 4.3 4.2 4.1 4.1 4.2 4.0 4.1 4.4 5.1 5.5 5.4 5.6 5.7 5.9 6.3 6.4 6.3 6.2 6.3 6.3 6.3 6.4 6.5 6.2 6.0 6.3 6.2 6.2 6.0 6.1 6.5 6.9 7.1 7.5 7.7 7.6 7.8 7.8 7.7 7.8 7.8 7.6
4.9 4.6 4.5 4.3 4.2 4.2 4.2 4.1 4.1 4.2 4.4 5.1 5.5 5.3 5.7 5.8 6.0 6.3 6.4 6.4 6.3 6.0 6.2 6.3 6.4 6.4 6.2 6.1 6.2 6.3 6.4 6.2 6.0 6.4 6.8 7.1 7.4 7.7 7.8 7.8 8.1 7.9 7.9 7.9 7.7
4.9 4.7 4.7 4.6 4.5 4.3 4.3 4.1 4.1 4.2 4.7 5.3 5.6 5.7 6.0 6.2 6.3 6.4 6.3 6.3 6.4 6.1 6.1 6.2 6.4 6.5 6.6 6.5 6.4 6.2 6.2 6.2 6.2 6.5 6.8 7.1 7.4 7.5 7.7 7.8 7.9 7.9 7.8 7.7 7.6
5.1 4.8 4.7 4.7 4.7 4.5 4.4 4.2 4.3 4.4 4.7 5.3 5.7 6.1 6.2 6.3 6.5 6.5 6.4 6.1 6.4 6.4 6.2 6.2 6.4 6.5 6.5 6.5 6.5 6.3 6.2 6.3 6.4 6.7 6.8 7.1 7.4 7.4 7.6 7.8 7.8 7.7 7.5 7.7 7.6
5.6 5.3 4.9 4.7 4.7 4.6 4.7 4.4 4.4 4.5 4.7 5.1 5.4 5.9 5.9 6.2 6.2 6.5 6.4 6.1 6.1 6.4 6.4 6.4 6.5 6.5 6.5 6.7 6.6 6.3 6.2 6.2 6.4 6.6 7.0 7.2 7.4 7.3 7.4 7.6 7.6 7.6 7.6 7.6 7.7
5.7 5.5 5.3 5.1 5.0 4.8 4.9 4.8 4.6 4.5 4.6 5.1 5.3 5.8 5.8 5.8 5.8 6.0 5.6 6.0 5.8 6.1 6.3 6.4 6.5 6.5 6.4 6.3 6.4 6.2 6.1 6.3 6.5 6.7 6.7 7.2 7.4 7.3 7.5 7.6 7.6 7.5 7.3 7.5 7.6
6.0 5.7 5.4 5.3 5.2 5.1 5.0 5.0 4.9 5.0 4.9 5.1 5.4 5.7 5.6 5.5 5.5 6.0 5.9 5.8 5.6 6.1 6.4 6.6 6.6 6.4 6.4 6.2 6.3 6.0 6.2 6.3 6.4 6.9 6.6 7.0 7.3 7.3 7.4 7.2 7.5 7.6 7.4 7.4 7.4
6.1 6.0 5.7 5.4 5.3 5.2 5.1 5.1 5.1 5.2 5.1 5.3 5.3 5.5 5.8 5.8 5.6 5.3 5.6 5.6 5.7 6.1 6.4 6.6 6.6 6.7 6.7 6.6 6.4 6.6 6.4 6.4 6.4 6.8 6.6 6.9 7.2 7.3 7.5 7.4 7.2 7.5 7.4 7.2 7.4
6.0 6.0 6.0 5.7 5.4 5.3 5.1 5.1 5.1 5.2 5.2 5.3 5.4 5.5 5.9 6.0 6.1 5.7 5.3 5.4 5.8 5.8 6.0 6.4 6.7 6.7 6.6 6.5 6.2 6.6 6.2 6.3 6.5 6.7 6.7 6.8 7.0 7.2 7.2 7.3 7.5 7.4 7.1 7.1 7.1
6.2 6.0 6.0 5.9 5.6 5.5 5.3 5.2 5.0 5.2 5.4 5.4 5.4 5.5 5.7 6.0 6.2 6.0 5.7 5.5 5.5 5.7 5.9 6.1 6.3 6.5 6.5 6.5 6.5 6.3 6.2 6.3 6.4 6.6 6.9 6.9 7.1 7.3 7.3 7.1 7.2 7.5 7.4 7.3 7.2
6.3 6.2 6.0 6.0 5.9 5.6 5.5 5.5 5.5 5.4 5.5 5.6 5.5 5.6 5.7 5.8 6.0 6.2 6.1 5.8 5.4 5.5 5.5 5.6 6.1 6.3 6.4 6.3 6.4 6.5 6.4 6.6 6.6 6.6 6.8 7.1 7.1 7.4 7.2 7.2 7.0 7.0 7.1 7.3 7.3
6.4 6.3 6.2 6.0 6.0 5.8 5.6 5.5 5.5 5.6 5.7 5.8 5.8 5.6 5.8 5.7 5.7 6.0 6.2 6.0 5.7 5.6 5.6 5.6 5.8 5.7 5.8 6.0 6.0 6.4 6.8 6.7 6.6 6.8 6.9 7.2 7.0 7.1 7.2 7.1 6.9 7.0 7.1 7.1 7.4
6.6 6.5 6.4 6.2 6.0 6.0 5.8 5.4 5.4 5.4 3.0 5.8 5.9 5.9 5.8 5.7 5.6 5.8 6.0 6.2 6.0 5.8 5.7 5.5 5.6 5.8 6.0 6.1 6.3 6.5 6.8 6.8 6.7 6.6 6.4 6.7 7.3 7.4 7.3 7.1 7.0 7.0 7.0 7.1 7.3
6.8 6.7 6.6 6.5 6.2 6.0 6.0 5.7 5.5 5.3 4.7 6.0 6.0 6.1 6.0 5.8 5.7 5.7 5.9 6.0 6.0 5.9 5.9 5.6 5.7 5.8 5.9 6.4 6.6 6.5 6.7 6.8 7.1 6.8 6.1 6.7 7.2 7.6 7.2 7.1 7.2 7.1 7.4 7.1 7.0
6.8 6.8 6.8 6.5 6.4 6.3 6.0 6.0 5.6 5.4 6.1 5.9 6.1 6.1 6.0 6.0 5.8 5.7 5.7 6.0 6.0 5.8 6.1 5.9 5.9 5.9 5.9 6.2 6.3 6.6 6.5 6.0 6.3 5.4 5.2 6.8 7.1 7.1 7.3 7.4 7.3 7.1 7.2 7.3 7.6
6.8 6.8 6.8 6.8 6.5 6.3 6.2 5.9 5.8 6.2 6.2 6.0 5.8 6.0 6.0 6.0 6.0 6.0 5.7 5.8 6.0 6.1 6.1 6.2 6.3 6.0 6.0 6.1 6.5 6.7 6.6 7.0 5.8 5.2 5.8 7.2 6.8 7.2 7.7 7.4 7.5 7.1 7.1 7.4 7.4
6.7 6.8 6.7 6.9 6.8 6.6 6.2 6.1 6.5 6.3 6.3 5.9 5.8 5.8 5.8 5.9 5.9 5.9 6.1 5.9 5.9 6.1 6.2 6.3 6.1 6.2 6.2 6.4 6.6 6.4 6.6 7.0 7.1 6.3 6.3 7.6 7.4 7.3 7.6 7.6 7.5 7.2 7.1 7.5 7.4
6.5 6.7 6.7 6.7 6.8 6.5 6.3 6.3 6.6 6.5 6.2 6.1 5.8 5.7 5.6 5.8 5.8 5.9 6.0 6.1 6.0 5.9 6.1 6.3 6.3 6.1 6.2 6.3 6.3 6.5 7.1 7.0 7.3 5.5 6.1 6.6 7.4 7.1 7.4 7.6 7.7 7.7 7.8 7.7 7.2
6.4 6.5 6.8 6.6 6.6 6.5 6.6 6.3 6.4 6.5 6.5 6.1 6.1 5.8 5.7 5.5 5.7 5.7 6.0 6.0 6.0 5.9 5.9 6.1 6.2 6.2 6.1 6.2 6.3 6.4 6.8 7.2 7.2 6.8 5.9 5.7 7.2 8.1 7.6 7.7 7.9 7.8 7.5 7.2 7.1
6.6 6.1 6.5 6.4 6.3 6.3 6.6 6.5 6.5 6.3 6.3 6.2 6.1 6.1 5.8 5.5 5.5 5.6 5.9 5.9 6.0 5.9 5.9 6.0 6.0 6.1 6.5 6.5 6.7 6.7 7.0 7.2 7.2 6.9 7.0 6.4 7.3 7.9 7.4 7.6 7.6 7.6 7.3 7.3 7.2
6.5 6.7 6.7 6.5 6.2 6.4 6.3 6.3 6.2 6.3 6.2 6.1 6.2 6.2 6.1 5.8 5.4 5.6 5.5 5.7 5.7 5.8 5.7 5.8 5.8 6.0 6.0 6.1 6.7 6.9 7.1 7.3 7.5 7.4 7.3 6.3 7.1 7.3 7.1 7.2 7.0 6.8 6.6 6.7 6.8
6.5 6.2 6.7 6.7 6.8 6.5 6.2 6.0 6.3 6.4 6.3 6.1 6.1 6.1 6.1 5.9 5.7 5.6 5.6 5.6 5.6 5.6 5.7 5.6 5.7 6.0 6.1 6.5 6.5 6.7 7.1 7.2 7.2 6.6 7.1 6.3 7.0 6.9 6.8 7.0 6.8 6.5 6.3 6.4 6.5
6.0 6.0 6.3 6.2 6.5 6.4 6.1 5.8 6.2 6.1 6.3 6.3 6.2 6.5 6.3 5.8 6.1 5.8 5.6 5.5 5.5 5.4 5.4 5.4 5.7 5.8 6.1 6.0 6.1 6.3 6.6 6.7 6.6 6.9 6.1 6.9 6.3 7.1 7.1 6.7 6.5 6.3 6.1 6.1 6.1
5.8 6.0 5.8 5.8 5.7 6.1 6.1 5.9 6.2 6.1 5.7 6.1 6.0 6.2 6.1 6.1 6.4 6.0 5.9 5.6 5.6 5.6 5.2 5.3 5.3 5.6 5.9 6.0 6.0 6.2 6.5 6.4 6.4 6.5 6.1 6.1 6.8 7.5 7.3 6.6 6.5 6.2 5.9 6.0 6.1
6.1 6.0 5.5 5.3 5.4 5.4 5.4 5.8 5.6 5.7 5.7 5.7 5.9 5.7 5.9 6.2 5.6 5.5 5.6 5.3 5.4 5.5 5.3 5.1 5.1 5.1 5.4 6.0 5.3 5.9 7.1 6.6 6.8 6.8 6.6 6.4 7.8 7.1 7.1 6.9 6.7 6.6 6.9 7.1 6.9
Wind_Speed
12 12 13 13 14 14 14 15 15 14 14 14 14 13 9 7 5 2 5 5 6 15 9 2 3 2 2 2 1 2 2 3 2 7 6 6 5 2 3 7 2 2 3 6 20
12 12 13 13 13 13 14 15 15 13 12 12 12 11 10 4 2 6 12 14 14 4 2 4 3 4 2 2 0 2 3 6 1 3 3 5 4 12 7 7 3 3 2 19 21
13 13 13 13 13 13 14 15 15 13 11 10 8 7 3 5 1 4 19 17 13 7 2 2 3 2 3 2 3 3 4 4 3 2 4 4 4 3 11 6 8 13 15 20 20
14 15 14 14 13 14 14 14 14 12 10 11 5 2 3 1 1 3 17 17 11 2 3 3 3 2 1 4 2 1 4 2 2 3 4 2 3 5 6 3 2 15 20 19 19
14 15 15 15 15 14 15 14 13 10 6 8 9 2 1 4 1 7 16 12 6 2 3 2 3 4 4 3 3 2 3 2 4 6 7 3 4 4 6 3 11 19 17 17 15
14 14 14 14 15 15 15 15 13 9 6 7 5 1 2 4 4 13 11 5 6 3 2 3 1 3 4 3 3 2 3 5 4 6 4 2 2 3 1 6 14 20 18 16 15
14 14 14 14 14 15 15 16 13 11 5 2 6 4 6 1 2 10 7 3 4 3 2 1 1 2 3 2 1 1 2 4 4 3 3 2 2 5 3 9 15 17 14 14 13
15 15 15 15 16 16 16 17 12 9 3 1 2 3 1 2 1 4 7 2 4 2 2 1 2 4 2 4 3 2 1 3 3 6 3 2 6 2 7 13 16 13 12 12 13
14 15 16 16 15 16 17 16 5 4 2 0 2 4 2 1 3 1 3 3 5 3 3 1 3 2 1 4 4 5 1 2 2 5 3 4 4 2 5 10 14 13 12 11 11
15 14 14 16 17 17 18 4 3 2 3 2 2 3 1 1 2 2 2 4 3 2 2 6 4 2 2 2 2 3 2 2 3 2 3 3 4 2 6 7 10 12 11 10 12
18 16 15 14 15 15 8 3 5 3 4 2 2 2 2 2 2 1 1 0 1 5 2 2 3 3 4 2 3 1 2 3 3 2 4 4 3 5 5 5 10 11 12 12 12
18 16 16 15 13 6 2 4 3 3 5 3 2 3 1 4 2 3 1 1 2 1 0 1 2 5 3 2 3 1 3 3 2 2 3 3 3 1 5 10 14 14 15 13 8
19 15 14 17 5 4 3 4 1 1 2 4 4 2 2 5 3 4 5 1 3 2 1 2 2 3 4 3 3 2 4 4 4 1 3 3 3 3 3 3 7 6 7 8 13
21 15 13 14 4 2 2 0 1 2 4 4 2 2 2 3 1 1 5 3 2 4 1 2 5 2 1 3 5 3 7 5 4 2 3 2 4 4 4 5 4 7 8 10 11
23 14 10 7 5 2 1 0 1 3 4 3 2 1 2 3 3 3 3 3 4 5 4 2 4 2 1 3 5 4 1 7 2 3 4 4 3 4 1 6 10 8 9 10 10
23 13 6 2 2 1 2 2 3 6 5 1 2 1 1 2 2 3 2 1 3 3 2 3 2 3 2 4 3 3 2 4 4 3 0 4 3 5 6 10 3 6 10 11 13
22 8 2 1 1 3 2 3 5 5 2 2 2 1 1 2 2 1 2 2 4 3 1 4 2 1 1 3 1 2 5 2 2 1 4 4 0 8 4 8 8 15 17 14 9
21 4 4 2 2 3 2 5 3 3 5 1 1 2 3 1 3 1 2 2 2 5 3 4 4 4 2 1 2 1 4 4 5 3 2 2 5 6 6 5 7 6 7 7 8
11 3 1 1 2 2 4 3 6 6 4 4 1 0 3 1 2 1 4 3 5 7 5 4 2 1 3 4 1 2 1 1 6 3 1 4 5 9 7 10 6 9 6 8 13
2 2 2 3 2 4 4 6 4 3 4 3 6 4 4 3 2 2 2 3 2 4 1 5 2 1 1 2 1 4 4 2 3 2 4 4 4 6 5 11 8 8 11 8 5
3 2 2 1 2 4 3 6 5 4 4 5 6 4 6 3 5 4 4 2 5 4 3 4 3 2 2 6 6 3 2 4 3 2 3 1 6 7 8 4 7 8 8 8 8
2 3 3 3 2 1 3 5 1 2 1 4 3 6 7 5 4 4 6 5 6 6 6 3 3 3 5 1 1 4 2 5 3 4 1 2 6 2 7 5 4 8 8 6 7
2 3 2 2 2 3 3 4 4 5 5 4 5 6 4 6 3 5 4 1 6 6 6 4 1 2 6 3 1 4 5 4 3 2 6 5 6 2 5 5 5 8 7 5 7
1 3 2 2 1 3 2 5 4 4 3 4 3 2 2 5 6 2 3 3 5 4 5 3 2 5 6 4 3 4 4 4 6 2 3 6 8 13 10 7 6 7 6 6 7
1 4 1 3 4 4 3 2 4 4 4 6 3 7 8 5 4 6 5 2 1 3 2 5 4 4 5 7 3 4 5 8 8 9 8 9 8 14 5 5 6 4 4 6 7
2 2 1 2 2 5 7 6 9 4 8 5 6 5 8 7 8 8 6 5 5 1 4 1 3 4 4 1 6 6 9 9 11 6 9 5 20 11 9 4 4 6 8 11 12
2 1 3 2 2 3 5 6 6 5 6 4 9 5 5 15 6 2 3 2 5 9 7 5 4 2 4 3 4 7 11 13 5 6 7 10 17 3 3 6 7 8 8 11 13
Wind_Direction
349 344 343 345 345 348 347 351 352 357 360 359 9 20 29 121 61 46 34 308 296 299 316 214 180 179 82 123 102 143 87 191 209 164 186 169 144 127 105 122 72 85 149 144 147
342 342 342 340 343 349 349 349 346 352 358 2 12 37 80 52 59 70 339 347 351 348 77 176 227 173 125 130 110 126 171 198 226 293 302 203 193 150 151 142 133 96 92 137 148
335 336 335 337 341 344 350 346 342 344 356 0 14 38 34 352 71 343 345 349 349 0 57 103 93 38 153 114 185 178 202 214 199 318 321 248 154 162 138 189 193 176 158 149 156
335 334 333 334 338 341 344 343 338 336 359 12 355 347 356 73 37 347 340 342 341 357 79 97 87 162 230 179 184 195 249 227 279 344 349 320 146 172 182 160 150 151 159 153 163
337 334 332 333 334 337 336 338 334 332 349 13 14 34 32 49 325 336 335 345 351 34 62 108 160 154 208 189 137 163 303 236 293 301 304 275 233 257 184 11 128 138 157 164 161
342 337 334 335 334 332 333 331 329 324 325 350 15 303 49 49 316 340 345 359 13 14 44 46 143 187 133 232 185 159 259 279 298 294 290 261 220 147 206 132 135 150 163 166 166
341 337 335 335 333 330 329 327 323 311 316 51 49 76 58 291 350 354 2 346 354 353 82 33 36 162 162 142 212 144 288 253 253 252 307 275 174 221 155 146 151 161 162 162 165
342 339 334 332 330 329 326 323 315 296 306 190 46 75 77 314 322 11 337 347 2 21 88 176 63 107 70 328 8 201 62 170 278 194 267 149 252 161 170 163 161 162 164 163 169
343 339 333 330 329 328 325 323 309 310 268 287 43 87 14 165 5 346 36 7 333 357 9 1 70 73 139 123 344 20 226 231 265 209 146 182 246 169 172 182 175 166 169 169 168
339 333 330 327 328 330 325 307 334 75 41 55 66 53 4 348 304 336 356 25 27 342 27 30 36 65 45 102 198 234 215 231 260 240 159 183 248 185 176 199 191 170 168 180 181
343 333 326 325 328 331 350 30 18 337 44 212 173 182 150 147 99 4 302 52 40 38 39 9 71 230 237 189 76 273 213 219 212 242 151 201 219 184 200 187 202 190 168 188 192
345 337 331 327 324 331 64 91 117 175 316 218 228 261 143 168 136 239 311 119 76 37 40 21 231 239 246 193 216 44 328 256 300 347 148 175 221 216 199 213 205 197 190 174 175
345 337 333 330 342 49 84 135 159 176 109 297 222 219 205 157 218 189 151 121 111 77 12 222 300 281 180 172 190 215 198 228 210 68 58 135 336 193 200 245 218 202 196 194 187
343 337 332 340 40 313 40 263 117 178 65 279 256 266 117 163 216 157 176 141 178 159 341 317 301 260 216 214 149 217 197 226 267 104 188 335 226 254 208 221 233 215 200 211 198
345 336 336 17 151 82 340 329 255 50 29 247 276 102 125 218 144 214 204 103 194 173 128 321 336 329 214 199 178 238 173 168 108 95 62 318 71 255 127 229 228 221 226 217 212
344 330 337 22 40 179 148 76 30 44 265 344 281 239 360 287 273 138 163 90 135 121 142 171 155 302 307 287 205 158 118 65 65 90 89 233 142 276 197 207 208 229 229 218 212
341 342 28 99 189 155 111 52 36 126 19 215 215 68 169 210 299 312 204 166 159 95 287 359 179 214 346 315 333 167 82 51 3 360 206 344 30 245 258 221 210 208 217 218 202
333 349 28 48 116 129 53 51 103 223 211 13 294 290 212 165 185 310 307 237 211 109 109 144 326 178 143 360 292 71 141 154 187 186 209 26 239 249 235 256 246 226 239 206 190
336 327 45 350 90 64 78 72 216 202 155 170 18 115 291 203 156 66 187 240 216 190 149 151 214 262 154 186 166 351 215 170 105 53 90 195 272 290 261 261 256 241 230 228 210
348 16 315 334 105 73 76 242 229 203 149 139 194 194 228 238 202 165 213 185 216 234 271 206 100 195 193 83 288 194 167 156 29 159 218 275 261 222 245 232 226 236 232 240 232
23 1 233 37 52 55 183 233 267 239 175 165 192 201 229 237 202 223 223 240 169 181 228 153 103 256 176 197 188 191 221 50 102 179 187 245 258 216 231 230 247 248 238 224 209
71 328 329 340 81 8 217 198 246 226 201 239 207 195 192 191 235 247 224 220 170 154 172 203 150 188 197 320 216 170 246 159 138 212 118 141 279 219 232 226 223 267 255 224 199
306 238 314 97 232 235 264 278 225 171 216 201 239 212 180 192 224 205 222 223 160 153 170 192 208 35 349 357 347 220 192 154 101 73 197 145 263 217 260 294 271 257 253 221 193
62 300 320 65 180 182 232 247 250 206 214 192 234 157 172 217 203 241 237 208 190 198 152 126 186 193 194 204 142 194 201 178 134 147 195 219 250 269 263 215 252 246 238 210 186
123 243 226 238 250 192 178 232 209 245 221 183 227 213 186 216 205 219 210 167 201 219 115 146 218 190 253 249 228 235 215 176 197 205 197 253 220 249 257 256 244 242 202 196 190
202 173 351 273 288 172 186 233 203 219 163 231 214 209 197 206 196 198 164 188 191 132 175 294 221 158 282 316 223 262 236 221 221 220 261 283 269 258 239 266 245 223 200 210 204
173 100 126 264 230 144 225 216 221 172 227 204 205 157 205 236 213 228 188 154 162 157 180 163 160 121 264 348 313 289 237 206 180 209 185 217 246 157 226 228 244 244 219 222 213